Flag for Brazil Weather past 2 weeks in Belém, Para, Brazil

Now
75 °F

Passing clouds.


Feels Like: 75 °F
Forecast: 74 / 84 °F
Wind: 7 mph from Northeast

Location: Belem Aeroporto

Current Time: Mar 5, 2015 at 9:08:18 PM

Latest Report: Mar 5, 2015 at 8:00 PM


Visibility: N/A

Pressure: 29.83 "Hg

Humidity: 89%

Dew point: 72 °F

Location of BelémLocation

Historic Weather in Belém — Graph

°F

Belém temperature yesterday

Maximum temperature yesterday: 86 °F (at 12:00 PM)
Minimum temperature yesterday: 75 °F (at 12:00 AM)
Average temperature yesterday: 78 °F

Past Weeks' High & Low Weather Summary

 TemperatureHumidityPressure
High88 °F (Feb 20, 4:00 PM)100% (Feb 19, 1:00 AM)29.95 "Hg (Feb 19, 1:00 AM)
Low39 °F (Mar 2, 4:00 PM)59% (Feb 20, 12:00 PM)29.59 "Hg (Feb 24, 3:00 PM)
Average78 °F85%29.86 "Hg
* Reported Feb 18 8:00 PM — Mar 5 8:00 PM, Belém, Weather by CustomWeather, © 2015

Note: Actual official high and low records may vary slightly from our data, if they occured in-between our weather recording intervals... More about our weather records

Advertising

Belém weather history for previous 24 hours

 ConditionsComfort  
Time TempWeatherWind HumidityBarometerVisibility
8:00 PM
Thu, Mar 5
75 °FPassing clouds.7 mph89%29.83 "HgN/A
7:00 PM75 °FPassing clouds.8 mph83%29.80 "HgN/A
6:00 PM77 °FBroken clouds.9 mph79%29.77 "HgN/A
5:00 PM75 °FBroken clouds.6 mph89%29.74 "HgN/A
4:00 PM75 °FBroken clouds.7 mph94%29.77 "HgN/A
3:00 PM75 °FThunderstorms. Broken clouds.15 mph89%N/A6 mi
2:00 PM43 °FThunderstorms. Broken clouds.16 mph100%29.83 "Hg2 mi
1:00 PM82 °FScattered showers. Partly sunny.12 mph79%29.86 "HgN/A
12:00 PM86 °FScattered showers. Partly sunny.8 mph66%29.89 "HgN/A
9:00 AM81 °FPassing clouds.7 mph84%29.89 "HgN/A
7:00 AM75 °FPartly sunny.3 mph94%29.83 "HgN/A
6:00 AM75 °FPassing clouds.2 mph94%29.83 "HgN/A
5:00 AM75 °FPassing clouds.No wind94%29.83 "HgN/A
4:00 AM75 °FPassing clouds.No wind94%29.83 "HgN/A
2:00 AM75 °FPartly cloudy.5 mph94%29.83 "HgN/A
1:00 AM75 °FPassing clouds.1 mph94%29.86 "HgN/A
12:00 AM75 °FLight rain. Passing clouds.2 mph94%29.89 "HgN/A
9:00 PM
Wed, Mar 4
77 °FPartly cloudy.6 mph89%29.89 "HgN/A
Weather by CustomWeather, © 2015

See weather overviewHow to use our weather pages